| time (UTC) | temp F | wind direction | speed MPH | gust MPH | rain 1hr in | rain 24hr in | rain mn in | humidity % | barometer mb |
| 20260503040010 | 65 | 66 | 0.0 | 0.0 | 0.00 | 0.00 | 0.00 | 43 | 1007.7 |
| 20260503034503 | 67 | 66 | 0.0 | 0.0 | 0.00 | 0.00 | 0.00 | 39 | 1007.6 |
| 20260503033003 | 69 | 66 | 0.0 | 0.0 | 0.00 | 0.00 | 0.00 | 36 | 1007.4 |
| 20260503031501 | 70 | 66 | 0.0 | 2.0 | 0.00 | 0.00 | 0.00 | 33 | 1007.1 |
| 20260503030108 | 71 | 66 | 0.0 | 3.0 | 0.00 | 0.00 | 0.00 | 33 | 1007.0 |
| 20260503024603 | 71 | 66 | 1.0 | 4.0 | 0.00 | 0.00 | 0.00 | 32 | 1007.0 |
| 20260503023058 | 72 | 66 | 1.0 | 3.0 | 0.00 | 0.00 | 0.00 | 31 | 1007.0 |
| 20260503021609 | 73 | 66 | 1.0 | 4.0 | 0.00 | 0.00 | 0.00 | 31 | 1006.8 |
| 20260503014555 | 74 | 66 | 1.0 | 6.0 | 0.00 | 0.00 | 0.00 | 30 | 1006.9 |
| 20260503013053 | 74 | 66 | 3.0 | 6.0 | 0.00 | 0.00 | 0.00 | 30 | 1007.0 |
| 20260503011603 | 75 | 66 | 2.0 | 5.0 | 0.00 | 0.00 | 0.00 | 30 | 1007.1 |
| 20260503010020 | 76 | 66 | 1.0 | 5.0 | 0.00 | 0.00 | 0.00 | 27 | 1007.2 |
| 20260503004521 | 77 | 67 | 1.0 | 5.0 | 0.00 | 0.00 | 0.00 | 28 | 1007.2 |
| 20260503003015 | 78 | 67 | 1.0 | 4.0 | 0.00 | 0.00 | 0.00 | 29 | 1007.2 |
| 20260503001515 | 79 | 66 | 0.0 | 5.0 | 0.00 | 0.00 | 0.00 | 25 | 1007.3 |
| 20260503000013 | 80 | 67 | 1.0 | 4.0 | 0.00 | 0.00 | 0.00 | 26 | 1007.3 |
| 20260502234529 | 80 | 66 | 1.0 | 8.0 | 0.00 | 0.00 | 0.00 | 26 | 1007.5 |
| 20260502233009 | 79 | 69 | 2.0 | 8.0 | 0.00 | 0.00 | 0.00 | 25 | 1007.6 |
| 20260502231507 | 80 | 69 | 0.0 | 3.0 | 0.00 | 0.00 | 0.00 | 21 | 1007.7 |
| 20260502230006 | 81 | 69 | 2.0 | 5.0 | 0.00 | 0.00 | 0.00 | 18 | 1007.8 |
| 20260502224503 | 81 | 71 | 1.0 | 5.0 | 0.00 | 0.00 | 0.00 | 24 | 1008.0 |
| 20260502223002 | 81 | 74 | 2.0 | 6.0 | 0.00 | 0.00 | 0.00 | 22 | 1008.2 |
| 20260502221604 | 81 | 74 | 0.0 | 4.0 | 0.00 | 0.00 | 0.00 | 26 | 1008.3 |
| 20260502220142 | 81 | 74 | 0.0 | 4.0 | 0.00 | 0.00 | 0.00 | 16 | 1008.5 |
| 20260502214555 | 81 | 74 | 1.0 | 3.0 | 0.00 | 0.00 | 0.00 | 18 | 1008.8 |
| 20260502213056 | 81 | 74 | 2.0 | 6.0 | 0.00 | 0.00 | 0.00 | 16 | 1009.0 |
| 20260502211547 | 80 | 88 | 1.0 | 6.0 | 0.00 | 0.00 | 0.00 | 27 | 1009.3 |
| 20260502210045 | 79 | 94 | 2.0 | 8.0 | 0.00 | 0.00 | 0.00 | 23 | 1009.5 |
| 20260502204542 | 79 | 100 | 1.0 | 6.0 | 0.00 | 0.00 | 0.00 | 25 | 1009.8 |
| 20260502203057 | 79 | 107 | 3.0 | 7.0 | 0.00 | 0.00 | 0.00 | 27 | 1009.9 |
| 20260502201508 | 79 | 109 | 1.0 | 4.0 | 0.00 | 0.00 | 0.00 | 25 | 1010.0 |
| 20260502200005 | 79 | 107 | 2.0 | 6.0 | 0.00 | 0.00 | 0.00 | 24 | 1010.3 |
| 20260502194603 | 79 | 111 | 2.0 | 4.0 | 0.00 | 0.00 | 0.00 | 27 | 1010.5 |
| 20260502193056 | 77 | 110 | 3.0 | 7.0 | 0.00 | 0.00 | 0.00 | 30 | 1010.8 |
| 20260502191607 | 76 | 114 | 1.0 | 7.0 | 0.00 | 0.00 | 0.00 | 27 | 1011.0 |
| 20260502190104 | 75 | 113 | 1.0 | 6.0 | 0.00 | 0.00 | 0.00 | 30 | 1011.2 |
| 20260502184519 | 74 | 113 | 0.0 | 3.0 | 0.00 | 0.00 | 0.00 | 31 | 1011.5 |
| 20260502183013 | 73 | 113 | 1.0 | 4.0 | 0.00 | 0.00 | 0.00 | 30 | 1011.9 |
| 20260502181539 | 71 | 113 | 1.0 | 4.0 | 0.00 | 0.00 | 0.00 | 29 | 1012.1 |
| 20260502163103 | 63 | 128 | 4.0 | 11.0 | 0.00 | 0.00 | 0.00 | 34 | 1013.0 |
| 20260502161512 | 63 | 117 | 4.0 | 9.0 | 0.00 | 0.00 | 0.00 | 34 | 1013.1 |
| 20260502151632 | 58 | 90 | 5.0 | 11.0 | 0.00 | 0.00 | 0.00 | 38 | 1012.9 |
| 20260502123032 | 43 | 71 | 0.0 | 0.0 | 0.00 | 0.00 | 0.00 | 75 | 1012.3 |
| 20260502121530 | 44 | 71 | 0.0 | 0.0 | 0.00 | 0.00 | 0.00 | 71 | 1012.3 |
| 20260502114559 | 44 | 71 | 0.0 | 2.0 | 0.00 | 0.00 | 0.00 | 68 | 1012.1 |
| 20260502113057 | 44 | 71 | 0.0 | 1.0 | 0.00 | 0.00 | 0.00 | 71 | 1012.2 |
| 20260502111553 | 44 | 71 | 0.0 | 0.0 | 0.00 | 0.00 | 0.00 | 70 | 1012.2 |
| 20260502110051 | 45 | 71 | 0.0 | 0.0 | 0.00 | 0.00 | 0.00 | 69 | 1012.2 |
| 20260502104548 | 45 | 71 | 1.0 | 2.0 | 0.00 | 0.00 | 0.00 | 68 | 1012.2 |
| 20260502103045 | 46 | 71 | 0.0 | 2.0 | 0.00 | 0.00 | 0.00 | 67 | 1012.1 |
| 20260502101541 | 48 | 71 | 0.0 | 1.0 | 0.00 | 0.00 | 0.00 | 62 | 1012.1 |
| 20260502091503 | 50 | 71 | 1.0 | 3.0 | 0.00 | 0.00 | 0.00 | 54 | 1012.0 |
| 20260502070051 | 51 | 71 | 0.0 | 2.0 | 0.00 | 0.00 | 0.00 | 61 | 1012.3 |
| 20260502064546 | 51 | 71 | 0.0 | 2.0 | 0.00 | 0.00 | 0.00 | 59 | 1012.3 |
| 20260502063009 | 52 | 71 | 0.0 | 1.0 | 0.00 | 0.00 | 0.00 | 60 | 1012.4 |
| 20260502061507 | 52 | 71 | 0.0 | 1.0 | 0.00 | 0.00 | 0.00 | 60 | 1012.3 |
| 20260502060001 | 53 | 71 | 0.0 | 0.0 | 0.00 | 0.00 | 0.00 | 58 | 1012.3 |
| 20260502054501 | 55 | 71 | 0.0 | 1.0 | 0.00 | 0.00 | 0.00 | 56 | 1012.4 |
| 20260502053001 | 56 | 71 | 0.0 | 1.0 | 0.00 | 0.00 | 0.00 | 51 | 1012.3 |
| 20260502051603 | 57 | 71 | 0.0 | 0.0 | 0.00 | 0.00 | 0.00 | 49 | 1012.3 |
| 20260502050058 | 57 | 71 | 1.0 | 2.0 | 0.00 | 0.00 | 0.00 | 48 | 1012.3 |
| 20260502044558 | 58 | 71 | 0.0 | 1.0 | 0.00 | 0.00 | 0.00 | 47 | 1012.3 |
| 20260502043106 | 58 | 71 | 0.0 | 1.0 | 0.00 | 0.00 | 0.00 | 48 | 1012.3 |
| 20260502041557 | 58 | 71 | 0.0 | 2.0 | 0.00 | 0.00 | 0.00 | 48 | 1012.2 |